This demonstration page uses our WeatherBlox Daily Observations layout. Learn more.

38.88101, -77.10428

Hourly Observations for September 23, 2018

Temp ( °F °C ) Dew Point ( °F °C ) Humidity (%) Winds ( mph kmh ) Pressure ( in mb ) Visibility ( mi km ) Precip ( " mm )
12:52 am 00:52 Cloudy 65 18.3 53 11.7 66 66 N 8 13 30.2 1023 10 16.0934 0 0
1:52 am 01:52 Cloudy 65 18.3 54 12.2 68 68 NNE 7 11 30.2 1023 10 16.0934 0 0
2:52 am 02:52 Cloudy with Light Rain 63 17.2 55 12.8 76 76 NE 9 15 30.19 1022 10 16.0934 0.01 0.254
3:10 am 03:10 Cloudy with Light Rain 63 17.2 56 13.3 78 78 NNE 8 13 30.18 1022 10 16.0934 0.02 0.508
3:52 am 03:52 Cloudy with Light Rain 62 16.7 56 13.3 80 80 NNE 7 11 30.18 1022 10 16.0934 0.04 1.016
4:43 am 04:43 Cloudy with Light Rain 62 16.7 56 13.3 80 80 NNE 8 13 30.18 1022 10 16.0934 0.02 0.508
4:52 am 04:52 Cloudy with Rain 62 16.7 56 13.3 80 80 NNE 10 17 30.18 1022 8 12.87472 0.03 0.762
5:52 am 05:52 Cloudy with Rain 61 16.1 57 13.9 87 87 NNE 8 13 30.19 1022 6 9.65604 0.06 1.524
6:27 am 06:27 Cloudy with Light Rain 61 16.1 57 13.9 87 87 NNE 9 15 30.18 1022 10 16.0934 0.04 1.016
6:35 am 06:35 Cloudy with Light Rain 61 16.1 57 13.9 87 87 NNE 9 15 30.18 1022 10 16.0934 0.04 1.016
6:52 am 06:52 Cloudy 61 16.1 57 13.9 87 87 NNE 9 15 30.17 1022 10 16.0934 0.04 1.016
7:52 am 07:52 Cloudy with Light Rain 62 16.7 57 13.9 84 84 NNE 9 15 30.17 1022 6 9.65604 0.01 0.254
7:59 am 07:59 Cloudy with Light Rain 62 16.7 57 13.9 84 84 NNE 8 13 30.18 1022 7 11.26538 0.01 0.254
8:28 am 08:28 Cloudy with Light Rain 62 16.7 58 14.4 86 86 NNE 7 11 30.21 1023 10 16.0934 0.02 0.508
8:52 am 08:52 Cloudy with Light Rain 63 17.2 59 15 87 87 N 7 11 30.21 1023 7 11.26538 0.03 0.762
9:40 am 09:40 Cloudy with Heavy Rain 62 16.7 59 15 90 90 NNE 10 17 30.21 1023 2 3.21868 0.08 2.032
9:52 am 09:52 Cloudy with Rain 62 16.7 59 15 90 90 NNE 9 15 30.21 1023 3 4.82802 0.12 3.048
9:59 am 09:59 Cloudy with Rain 62 16.7 59 15 90 90 NNE 12 19 30.21 1023 4 6.43736 0.01 0.254
10:52 am 10:52 Cloudy with Light Rain 63 17.2 60 15.6 90 90 NNE 8 13 30.22 1023 10 16.0934 0.07 1.778
11:52 am 11:52 Cloudy with Light Rain 64 17.8 61 16.1 90 90 NNE 8 13 30.22 1023 4 6.43736 0.01 0.254
12:07 pm 12:07 Cloudy with Light Rain 64 17.8 61 16.1 90 90 NNE 8 13 30.21 1023 3 4.82802 0.01 0.254
12:37 pm 12:37 Cloudy with Rain 65 18.3 61 16.1 87 87 NE 12 19 30.21 1023 3 4.82802 0.04 1.016
12:52 pm 12:52 Cloudy with Light Rain 65 18.3 62 16.7 90 90 NE 8 13 30.21 1023 4 6.43736 0.06 1.524
1:17 pm 13:17 Cloudy with Light Rain 65 18.3 61 16.1 87 87 ENE 10 17 30.21 1023 10 16.0934 0 0.0254
1:26 pm 13:26 Cloudy with Light Rain 65 18.3 61 16.1 87 87 NE 8 13 30.21 1023 10 16.0934 0 0.0254
1:52 pm 13:52 Cloudy with Light Rain 65 18.3 61 16.1 87 87 NE 12 19 30.2 1023 6 9.65604 0.01 0.254
2:19 pm 14:19 Cloudy with Light Rain 64 17.8 61 16.1 90 90 NNE 10 17 30.21 1023 3 4.82802 0.01 0.254
2:28 pm 14:28 Cloudy with Light Rain 64 17.8 61 16.1 90 90 NNE 8 13 30.21 1023 2 3.21868 0.02 0.508
2:52 pm 14:52 Cloudy with Light Rain 64 17.8 61 16.1 90 90 NNE 9 15 30.19 1023 2 3.21868 0.03 0.762
2:59 pm 14:59 Cloudy with Light Rain 64 17.8 61 16.1 90 90 NNE 9 15 30.21 1023 3 4.82802 0 0.0254
3:52 pm 15:52 Cloudy with Light Rain 64 17.8 61 16.1 90 90 NNE 12 19 30.19 1022 8 12.87472 0 0.0254
4:29 pm 16:29 Cloudy with Light Rain 64 17.8 61 16.1 90 90 NE 13 20 30.18 1022 3 4.82802 0.01 0.254
4:52 pm 16:52 Cloudy with Light Rain 64 17.8 61 16.1 90 90 NNE 9 15 30.18 1022 7 11.26538 0.03 0.762
4:55 pm 16:55 Cloudy with Light Rain 64 17.8 61 16.1 90 90 NE 10 17 30.18 1022 7 11.26538 0 0.0254
5:26 pm 17:26 Cloudy 64 17.8 61 16.1 90 90 NE 9 15 30.18 1022 10 16.0934 0 0.0254
5:52 pm 17:52 Cloudy 64 17.8 61 16.1 90 90 NNE 10 17 30.2 1023 10 16.0934 0.01 0.254
5:58 pm 17:58 Cloudy with Light Rain 64 17.8 60 15.6 87 87 NNE 10 17 30.21 1023 7 11.26538 0 0.0254
6:07 pm 18:07 Cloudy with Light Rain 64 17.8 60 15.6 87 87 NNE 13 20 30.21 1023 2.5 4.02335 0 0.0254
6:29 pm 18:29 Cloudy with Light Rain 65 18.3 61 16.1 87 87 NNE 14 22 30.21 1023 2 3.21868 0.01 0.254
6:31 pm 18:31 Cloudy with Light Rain 65 18.3 61 16.1 87 87 NNE 12 19 30.21 1023 1.75 2.816345 0.01 0.254
6:52 pm 18:52 Cloudy with Light Rain 66 18.9 61 16.1 84 84 N 13 20 30.21 1023 2.5 4.02335 0.03 0.762
6:55 pm 18:55 Cloudy with Light Rain 65 18.3 61 16.1 87 87 N 12 19 30.21 1023 2.5 4.02335 0.01 0.254
6:57 pm 18:57 Cloudy with Light Rain 64 17.8 61 16.1 90 90 NNE 13 20 30.21 1023 3 4.82802 0.01 0.254
7:37 pm 19:37 Cloudy with Light Rain 63 17.2 60 15.6 90 90 N 9 15 30.21 1023 5 8.0467 0.04 1.016
7:47 pm 19:47 Cloudy with Rain 63 17 61 16 94 94 NNE 10 17 30.21 1023 4 6.43736 0.05 1.27
7:52 pm 19:52 Cloudy with Rain 63 17.2 60 15.6 90 90 NNE 9 15 30.22 1023 4 6.43736 0.06 1.524
8:03 pm 20:03 Cloudy with Light Rain 63 17.2 60 15.6 90 90 NNE 10 17 30.21 1023 5 8.0467 0.01 0.254
8:12 pm 20:12 Cloudy with Light Rain 63 17.2 60 15.6 90 90 NNE 8 13 30.21 1023 5 8.0467 0.01 0.254
8:27 pm 20:27 Cloudy with Light Rain 63 17.2 60 15.6 90 90 NNE 10 17 30.24 1024 5 8.0467 0.02 0.508
8:52 pm 20:52 Cloudy 63 17.2 60 15.6 90 90 NNE 9 15 30.22 1024 10 16.0934 0.02 0.508
9:01 pm 21:01 Cloudy 63 17.2 60 15.6 90 90 NNE 9 15 30.24 1024 10 16.0934 0 0
9:34 pm 21:34 Cloudy 64 17.8 60 15.6 87 87 NNE 9 15 30.24 1024 10 16.0934 0 0
9:52 pm 21:52 Cloudy 64 17.8 60 15.6 87 87 NNE 9 15 30.24 1024 10 16.0934 0 0
10:52 pm 22:52 Cloudy with Light Drizzle 64 17.8 61 16.1 90 90 NNE 9 15 30.25 1024 5 8.0467 0 0.0254
11:52 pm 23:52 Cloudy with Light Drizzle 64 17.8 61 16.1 90 90 NE 8 13 30.24 1024 5 8.0467 0.02 0.508

Powered by AerisWeather